SR9SMR Weather Reports


Display with metric or nautical units.
time (UTC)temp
F
wind
direction
speed
MPH
gust
MPH
rain 1hr
in
rain 24hr
in
rain mn
in
humidity
%
barometer
mb
20260508002337 45 48 2.0 4.0 0.00 0.00 0.00 100 900.2
20260508002131 45 59 2.0 3.0 0.00 0.00 0.00 100 900.4
20260508001935 45 62 2.0 3.0 0.00 0.00 0.00 100 898.0
20260508001733 46 57 2.0 2.0 0.00 0.00 0.00 100 898.3
20260508001628 46 51 1.0 2.0 0.00 0.00 0.00 100 898.7
20260508001531 45 51 1.0 2.0 0.00 0.00 0.00 100 900.7
20260508001331 46 127 1.0 3.0 0.00 0.00 0.00 100 902.4
20260508001126 46 138 1.0 3.0 0.00 0.00 0.00 100 898.7
20260508000929 46 111 1.0 4.0 0.00 0.00 0.00 100 903.3
20260508000728 46 67 1.0 4.0 0.00 0.00 0.00 100 898.5
20260508000624 46 48 1.0 2.0 0.00 0.00 0.00 100 899.1
20260508000527 46 17 1.0 2.0 0.00 0.00 0.00 100 899.1
20260508000327 45 28 1.0 3.0 0.00 0.00 0.00 100 903.3
20260508000120 46 42 2.0 4.0 0.00 0.00 0.00 100 897.9
20260507235924 46 37 3.0 6.0 0.00 0.00 0.00 100 900.5
20260507235723 46 31 3.0 6.0 0.00 0.00 0.00 100 899.9
20260507235619 46 33 2.0 6.0 0.00 0.00 0.00 100 899.5
20260507235523 46 37 3.0 5.0 0.00 0.00 0.00 100 899.5
20260507235322 45 49 3.0 6.0 0.00 0.00 0.00 100 898.2
20260507235118 45 49 3.0 6.0 0.00 0.00 0.00 100 902.4
20260507234920 45 45 4.0 8.0 0.00 0.00 0.00 100 900.0
20260507234719 46 48 3.0 8.0 0.00 0.00 0.00 100 900.3
20260507234615 46 52 4.0 8.0 0.00 0.00 0.00 100 896.9
20260507234518 45 61 4.0 6.0 0.00 0.00 0.00 100 897.4
20260507234317 45 74 4.0 7.0 0.00 0.00 0.00 100 898.8
20260507234113 45 84 4.0 7.0 0.00 0.00 0.00 100 901.4
20260507233915 45 78 3.0 6.0 0.00 0.00 0.00 100 899.4
20260507233714 45 70 3.0 5.0 0.00 0.00 0.00 100 902.4
20260507233609 45 66 3.0 5.0 0.00 0.00 0.00 100 897.0
20260507233512 45 66 3.0 4.0 0.00 0.00 0.00 100 897.0
20260507233311 45 64 3.0 4.0 0.00 0.00 0.00 100 899.9
20260507233206 45 60 2.0 4.0 0.00 0.00 0.00 100 903.6
20260507233105 45 59 2.0 4.0 0.00 0.00 0.00 100 903.6
20260507232953 45 33 2.0 4.0 0.00 0.00 0.00 100 897.3
20260507232900 45 22 1.0 3.0 0.00 0.00 0.00 100 897.8
20260507232752 45 18 1.0 3.0 0.00 0.00 0.00 100 898.7
20260507232700 45 17 1.0 3.0 0.00 0.00 0.00 100 900.7
20260507232551 46 17 1.0 3.0 0.00 0.00 0.00 100 902.9
20260507232459 46 20 1.0 3.0 0.00 0.00 0.00 100 900.4
20260507232350 45 25 1.0 2.0 0.00 0.00 0.00 100 902.2
20260507232258 45 24 1.0 2.0 0.00 0.00 0.00 100 898.3
20260507232150 46 28 1.0 3.0 0.00 0.00 0.00 100 898.8
20260507232050 46 27 1.0 3.0 0.00 0.00 0.00 100 902.4
20260507231937 46 31 1.0 3.0 0.00 0.00 0.00 100 902.4
20260507231846 46 31 1.0 3.0 0.00 0.00 0.00 100 898.2
20260507231735 46 33 1.0 3.0 0.00 0.00 0.00 100 898.5
20260507231645 46 31 1.0 3.0 0.00 0.00 0.00 100 898.5
20260507231535 46 31 1.0 3.0 0.00 0.00 0.00 100 901.1
20260507231445 46 30 1.0 3.0 0.00 0.00 0.00 100 903.5
20260507231334 46 20 1.0 2.0 0.00 0.00 0.00 100 898.8
20260507231243 46 347 1.0 4.0 0.00 0.00 0.00 100 900.1
20260507231133 46 316 1.0 4.0 0.00 0.00 0.00 100 902.7
20260507231033 46 301 1.0 4.0 0.00 0.00 0.00 100 898.4
20260507230933 46 314 1.0 4.0 0.00 0.00 0.00 100 898.4
20260507230842 46 340 1.0 4.0 0.00 0.00 0.00 100 898.6
20260507230732 46 340 1.0 3.0 0.00 0.00 0.00 100 899.3
20260507230642 46 5 1.0 3.0 0.00 0.00 0.00 100 900.6
20260507230531 46 13 1.0 3.0 0.00 0.00 0.00 100 904.7
20260507230441 46 10 2.0 3.0 0.00 0.00 0.00 100 904.7
20260507230331 46 8 2.0 6.0 0.00 0.00 0.00 100 898.6
20260507230241 45 356 3.0 7.0 0.00 0.00 0.00 100 899.7
20260507230131 45 351 3.0 7.0 0.00 0.00 0.00 100 903.2
20260507230031 45 353 4.0 7.0 0.00 0.00 0.00 100 898.2
20260507225930 46 351 3.0 7.0 0.00 0.00 0.00 100 900.1
20260507225840 46 359 3.0 5.0 0.00 0.00 0.00 100 903.0
20260507225729 46 2 3.0 5.0 0.00 0.00 0.00 100 897.9
20260507225639 46 15 3.0 5.0 0.00 0.00 0.00 100 900.0
20260507225528 46 15 3.0 5.0 0.00 0.00 0.00 100 898.8
20260507225437 46 16 3.0 5.0 0.00 0.00 0.00 100 898.8
20260507225327 45 16 3.0 7.0 0.00 0.00 0.00 100 900.1
20260507225237 45 19 3.0 8.0 0.00 0.00 0.00 100 900.1
20260507225126 46 19 3.0 8.0 0.00 0.00 0.00 100 897.3
20260507225027 46 16 3.0 8.0 0.00 0.00 0.00 100 901.5
20260507224926 46 13 3.0 8.0 0.00 0.00 0.00 100 901.5
20260507224836 46 13 3.0 6.0 0.00 0.00 0.00 100 904.9
20260507224725 46 8 3.0 6.0 0.00 0.00 0.00 100 896.9
20260507224634 46 8 3.0 6.0 0.00 0.00 0.00 100 898.1
20260507224524 46 9 3.0 5.0 0.00 0.00 0.00 100 904.7
20260507224433 46 13 2.0 5.0 0.00 0.00 0.00 100 904.7
20260507224323 46 13 2.0 4.0 0.00 0.00 0.00 100 899.9
20260507224233 46 13 2.0 4.0 0.00 0.00 0.00 100 899.9
20260507224122 46 20 1.0 2.0 0.00 0.00 0.00 100 898.5
20260507224023 46 32 1.0 2.0 0.00 0.00 0.00 100 898.5
20260507223921 46 48 1.0 3.0 0.00 0.00 0.00 100 900.7
20260507223830 46 48 2.0 4.0 0.00 0.00 0.00 100 905.5
20260507223720 46 54 2.0 4.0 0.00 0.00 0.00 100 897.4
20260507223629 46 39 2.0 6.0 0.00 0.00 0.00 100 897.4
20260507223519 46 32 2.0 6.0 0.00 0.00 0.00 100 900.9
20260507223428 46 28 2.0 7.0 0.00 0.00 0.00 100 897.2
20260507223318 46 26 3.0 7.0 0.00 0.00 0.00 100 897.2
20260507223227 46 26 3.0 8.0 0.00 0.00 0.00 100 897.2
20260507223116 46 24 4.0 8.0 0.00 0.00 0.00 100 899.3
20260507223015 46 25 4.0 8.0 0.00 0.00 0.00 100 901.3
20260507222912 46 26 4.0 8.0 0.00 0.00 0.00 100 896.8
20260507222710 46 42 4.0 8.0 0.00 0.00 0.00 100 899.1
20260507222509 46 60 3.0 5.0 0.00 0.00 0.00 100 897.1
20260507222306 46 0 2.0 5.0 0.00 0.00 0.00 100 905.1
20260507222102 46 251 2.0 7.0 0.00 0.00 0.00 100 898.1
20260507222000 46 251 3.0 7.0 0.00 0.00 0.00 100 901.0
20260507221858 46 249 3.0 8.0 0.00 0.00 0.00 100 901.8
20260507221658 46 254 3.0 8.0 0.00 0.00 0.00 100 897.7
20260507221456 46 262 2.0 8.0 0.00 0.00 0.00 100 900.6
20260507221256 46 271 2.0 4.0 0.00 0.00 0.00 100 898.3
20260507221055 46 292 2.0 4.0 0.00 0.00 0.00 100 899.2
20260507220955 46 319 2.0 5.0 0.00 0.00 0.00 100 899.2
20260507220854 46 2 2.0 5.0 0.00 0.00 0.00 100 899.3
20260507220653 46 14 2.0 6.0 0.00 0.00 0.00 100 903.2
20260507220452 46 11 3.0 10.0 0.00 0.00 0.00 100 897.6
20260507220252 46 14 4.0 10.0 0.00 0.00 0.00 100 899.2
20260507220050 46 22 4.0 12.0 0.00 0.00 0.00 100 902.0
20260507215951 46 28 4.0 12.0 0.00 0.00 0.00 100 896.8
20260507215849 46 45 5.0 12.0 0.00 0.00 0.00 100 897.6
20260507215648 46 55 5.0 12.0 0.00 0.00 0.00 100 904.7
20260507215446 46 59 5.0 11.0 0.00 0.00 0.00 100 897.0
20260507215246 46 57 6.0 13.0 0.00 0.00 0.00 100 898.6
20260507215044 46 49 5.0 13.0 0.00 0.00 0.00 100 897.3
20260507214945 46 52 5.0 9.0 0.00 0.00 0.00 100 897.3
20260507214843 46 52 5.0 9.0 0.00 0.00 0.00 100 896.6
20260507214640 46 46 5.0 10.0 0.00 0.00 0.00 100 902.2
20260507214436 46 39 4.0 10.0 0.00 0.00 0.00 100 896.6
20260507214234 46 41 4.0 10.0 0.00 0.00 0.00 100 904.7
20260507214031 46 38 4.0 10.0 0.00 0.00 0.00 100 896.5
20260507213931 47 32 3.0 7.0 0.00 0.00 0.00 100 896.5
20260507213830 47 29 3.0 7.0 0.00 0.00 0.00 100 897.1
20260507213735 46 27 3.0 8.0 0.00 0.00 0.00 100 899.0
20260507213629 46 26 3.0 8.0 0.00 0.00 0.00 100 905.3
20260507213534 47 27 3.0 8.0 0.00 0.00 0.00 100 899.6
20260507213428 46 29 4.0 8.0 0.00 0.00 0.00 100 896.9
20260507213333 46 29 4.0 10.0 0.00 0.00 0.00 100 899.8
20260507213227 47 26 4.0 10.0 0.00 0.00 0.00 100 905.6
20260507213132 47 23 4.0 10.0 0.00 0.00 0.00 100 896.4
20260507213026 47 21 4.0 10.0 0.00 0.00 0.00 100 898.2
20260507212927 47 21 4.0 10.0 0.00 0.00 0.00 100 898.2
20260507212826 47 21 4.0 8.0 0.00 0.00 0.00 100 904.2
20260507212730 47 24 3.0 8.0 0.00 0.00 0.00 100 900.3
20260507212624 47 20 3.0 6.0 0.00 0.00 0.00 100 896.9
20260507212529 47 17 3.0 6.0 0.00 0.00 0.00 100 897.3
20260507212424 47 10 3.0 7.0 0.00 0.00 0.00 100 899.1
20260507212328 47 5 4.0 11.0 0.00 0.00 0.00 100 902.6
20260507212223 47 0 5.0 11.0 0.00 0.00 0.00 100 901.4
20260507212128 47 354 5.0 11.0 0.00 0.00 0.00 100 897.0
20260507212022 47 356 5.0 11.0 0.00 0.00 0.00 100 897.0
20260507211923 47 356 4.0 10.0 0.00 0.00 0.00 100 899.2
20260507211821 47 354 4.0 10.0 0.00 0.00 0.00 100 903.6
20260507211725 47 354 4.0 10.0 0.00 0.00 0.00 100 903.6
20260507211620 47 339 4.0 10.0 0.00 0.00 0.00 100 902.5
20260507211524 47 332 3.0 10.0 0.00 0.00 0.00 100 897.2
20260507211419 47 317 2.0 9.0 0.00 0.00 0.00 100 897.7
20260507211324 47 302 2.0 7.0 0.00 0.00 0.00 100 898.5
20260507211219 47 298 2.0 7.0 0.00 0.00 0.00 100 900.4
20260507211124 47 296 3.0 7.0 0.00 0.00 0.00 100 901.9
20260507211018 47 282 4.0 7.0 0.00 0.00 0.00 100 898.8
20260507210918 47 282 4.0 7.0 0.00 0.00 0.00 100 902.1
20260507210814 47 266 3.0 6.0 0.00 0.00 0.00 100 897.7
20260507210721 47 251 3.0 5.0 0.00 0.00 0.00 100 898.4
20260507210613 47 246 3.0 5.0 0.00 0.00 0.00 100 901.4
20260507210521 47 245 3.0 5.0 0.00 0.00 0.00 100 901.4
20260507210412 47 242 4.0 5.0 0.00 0.00 0.00 100 897.6
20260507210320 47 242 4.0 5.0 0.00 0.00 0.00 100 899.9
20260507210212 47 240 3.0 5.0 0.00 0.00 0.00 100 899.9
20260507210119 47 239 3.0 5.0 0.00 0.00 0.00 100 897.9
20260507210011 47 239 3.0 4.0 0.00 0.00 0.00 100 898.8
20260507205912 47 238 2.0 4.0 0.00 0.00 0.00 100 899.6
20260507205811 47 238 2.0 4.0 0.00 0.00 0.00 100 899.6
20260507205718 47 238 2.0 4.0 0.00 0.00 0.00 100 897.9
20260507205610 47 235 2.0 4.0 0.00 0.00 0.00 100 898.5
20260507205517 47 239 2.0 4.0 0.00 0.00 0.00 100 902.2
20260507205409 47 239 2.0 4.0 0.00 0.00 0.00 100 902.2
20260507205317 47 244 2.0 4.0 0.00 0.00 0.00 100 902.2
20260507205209 47 243 2.0 4.0 0.00 0.00 0.00 100 898.0
20260507205116 47 245 2.0 3.0 0.00 0.00 0.00 100 899.1
20260507205008 47 245 2.0 3.0 0.00 0.00 0.00 100 904.0
20260507204908 47 258 2.0 3.0 0.00 0.00 0.00 100 897.8
20260507204806 47 272 2.0 3.0 0.00 0.00 0.00 100 898.5
20260507204713 47 287 2.0 3.0 0.00 0.00 0.00 100 898.5
20260507204606 47 287 2.0 3.0 0.00 0.00 0.00 100 900.2
20260507204513 47 298 2.0 3.0 0.00 0.00 0.00 100 902.3
20260507204405 47 316 2.0 3.0 0.00 0.00 0.00 100 897.5
20260507204301 47 320 2.0 3.0 0.00 0.00 0.00 100 897.3
20260507204153 47 324 2.0 3.0 0.00 0.00 0.00 100 897.5
20260507204100 47 336 1.0 3.0 0.00 0.00 0.00 100 897.5
20260507203953 47 344 2.0 3.0 0.00 0.00 0.00 100 898.7
20260507203854 48 350 1.0 3.0 0.00 0.00 0.00 100 901.9
20260507203752 47 353 2.0 3.0 0.00 0.00 0.00 100 901.9
20260507203659 47 351 2.0 4.0 0.00 0.00 0.00 100 899.0
20260507203550 47 1 2.0 4.0 0.00 0.00 0.00 100 901.1
20260507203457 47 6 2.0 5.0 0.00 0.00 0.00 100 897.3
20260507203349 47 6 2.0 5.0 0.00 0.00 0.00 100 897.4
20260507203255 47 6 2.0 5.0 0.00 0.00 0.00 100 898.2
20260507203148 47 2 1.0 3.0 0.00 0.00 0.00 100 901.9
20260507203054 47 322 1.0 3.0 0.00 0.00 0.00 100 899.6
20260507202947 47 299 1.0 3.0 0.00 0.00 0.00 100 900.7
20260507202854 47 299 1.0 3.0 0.00 0.00 0.00 100 900.7
20260507202847 47 299 1.0 3.0 0.00 0.00 0.00 100 897.3
20260507202746 47 304 1.0 3.0 0.00 0.00 0.00 100 897.3
20260507202652 47 338 2.0 3.0 0.00 0.00 0.00 100 897.6
20260507202544 47 359 2.0 4.0 0.00 0.00 0.00 100 897.6
20260507202450 47 6 2.0 5.0 0.00 0.00 0.00 100 898.7
20260507202344 47 6 2.0 5.0 0.00 0.00 0.00 100 903.2
20260507202250 48 335 2.0 5.0 0.00 0.00 0.00 100 898.6
20260507202143 48 323 2.0 5.0 0.00 0.00 0.00 100 901.6
20260507202049 48 315 2.0 5.0 0.00 0.00 0.00 100 897.5
20260507201941 48 307 2.0 5.0 0.00 0.00 0.00 100 897.5
20260507201842 48 307 2.0 5.0 0.00 0.00 0.00 100 897.7
20260507201740 48 316 2.0 5.0 0.00 0.00 0.00 100 897.6
20260507201646 48 311 2.0 6.0 0.00 0.00 0.00 100 897.6
20260507201539 48 299 2.0 6.0 0.00 0.00 0.00 100 898.0
20260507201446 48 299 2.0 6.0 0.00 0.00 0.00 100 899.8
20260507201338 48 260 1.0 3.0 0.00 0.00 0.00 100 903.4
20260507201244 48 247 1.0 3.0 0.00 0.00 0.00 100 904.7
20260507201136 48 275 2.0 5.0 0.00 0.00 0.00 100 897.9
20260507201043 48 290 2.0 6.0 0.00 0.00 0.00 100 897.6
20260507200936 48 297 2.0 6.0 0.00 0.00 0.00 100 897.3
20260507200837 48 297 3.0 6.0 0.00 0.00 0.00 100 897.2
20260507200735 48 296 3.0 7.0 0.00 0.00 0.00 100 898.1
20260507200642 48 294 3.0 10.0 0.00 0.00 0.00 100 900.4
20260507200534 48 294 4.0 10.0 0.00 0.00 0.00 100 900.4
20260507200440 48 295 4.0 10.0 0.00 0.00 0.00 100 900.4
20260507200333 48 296 3.0 10.0 0.00 0.00 0.00 100 898.4
20260507200240 48 305 2.0 7.0 0.00 0.00 0.00 100 898.4
20260507200132 48 327 2.0 7.0 0.00 0.00 0.00 100 897.7
20260507200038 48 327 2.0 7.0 0.00 0.00 0.00 100 898.5
20260507195930 48 330 2.0 7.0 0.00 0.00 0.00 100 901.1
20260507195831 48 329 2.0 9.0 0.00 0.00 0.00 100 901.1
20260507195730 48 315 3.0 9.0 0.00 0.00 0.00 100 898.4
20260507195636 48 312 4.0 10.0 0.00 0.00 0.00 100 901.1
20260507195529 48 299 4.0 10.0 0.00 0.00 0.00 100 897.5
20260507195435 48 299 4.0 10.0 0.00 0.00 0.00 100 897.5
20260507195328 48 306 3.0 9.0 0.00 0.00 0.00 100 898.9
20260507195235 48 310 3.0 9.0 0.00 0.00 0.00 100 898.9
20260507195128 48 301 4.0 9.0 0.00 0.00 0.00 100 902.1
20260507195034 48 300 5.0 13.0 0.00 0.00 0.00 100 897.1
20260507194926 48 294 6.0 13.0 0.00 0.00 0.00 100 898.5
20260507194827 48 294 7.0 13.0 0.00 0.00 0.00 100 902.8
20260507194725 48 291 7.0 13.0 0.00 0.00 0.00 100 898.4
20260507194631 48 291 6.0 13.0 0.00 0.00 0.00 100 896.3
20260507194524 48 291 6.0 13.0 0.00 0.00 0.00 100 896.3
20260507194430 48 295 5.0 9.0 0.00 0.00 0.00 100 897.3
20260507194323 48 297 5.0 11.0 0.00 0.00 0.00 100 899.7
20260507194229 48 296 5.0 11.0 0.00 0.00 0.00 100 903.8
20260507194122 48 297 5.0 11.0 0.00 0.00 0.00 100 896.6
20260507194029 48 297 4.0 11.0 0.00 0.00 0.00 100 896.6
20260507193922 49 296 3.0 9.0 0.00 0.00 0.00 100 896.6
20260507193823 49 274 3.0 9.0 0.00 0.00 0.00 100 897.2
20260507193721 49 248 3.0 9.0 0.00 0.00 0.00 100 897.8
20260507193627 50 238 5.0 10.0 0.00 0.00 0.00 100 899.0
20260507193520 49 238 8.0 16.0 0.00 0.00 0.00 100 903.0
20260507193425 49 234 9.0 16.0 0.00 0.00 0.00 100 897.8
20260507193319 50 230 11.0 16.0 0.00 0.00 0.00 100 896.2
20260507193224 50 231 11.0 17.0 0.00 0.00 0.00 100 897.3
20260507193116 50 230 11.0 17.0 0.00 0.00 0.00 100 902.3
20260507193022 50 229 11.0 17.0 0.00 0.00 0.00 100 900.4
20260507192916 50 229 12.0 17.0 0.00 0.00 0.00 100 896.1
20260507192816 50 229 12.0 17.0 0.00 0.00 0.00 100 896.1
20260507192716 50 229 12.0 17.0 0.00 0.00 0.00 100 897.7
20260507192621 50 226 11.0 17.0 0.00 0.00 0.00 100 901.1
20260507192514 50 226 12.0 18.0 0.00 0.00 0.00 100 899.5
20260507192420 50 225 12.0 18.0 0.00 0.00 0.00 100 898.6
20260507192314 50 224 12.0 18.0 0.00 0.00 0.00 100 897.7
20260507192219 50 224 12.0 18.0 0.00 0.00 0.00 100 898.6
20260507192112 50 227 12.0 18.0 0.00 0.00 0.00 100 898.5
20260507192018 50 227 12.0 18.0 0.00 0.00 0.00 100 898.6
20260507191912 50 226 12.0 18.0 0.00 0.00 0.00 100 899.4
20260507191818 50 226 12.0 18.0 0.00 0.00 0.00 100 899.4
20260507191812 50 226 12.0 18.0 0.00 0.00 0.00 100 896.2
20260507191711 50 224 12.0 18.0 0.00 0.00 0.00 100 896.2
20260507191617 50 224 12.0 18.0 0.00 0.00 0.00 100 900.3
20260507191510 50 225 13.0 17.0 0.00 0.00 0.00 100 900.3
20260507191416 50 226 13.0 19.0 0.00 0.00 0.00 100 898.8
20260507191309 50 227 13.0 19.0 0.00 0.00 0.00 100 895.5
20260507191216 50 226 13.0 19.0 0.00 0.00 0.00 100 899.2
20260507191108 49 226 12.0 19.0 0.00 0.00 0.00 100 901.7
20260507191014 49 222 11.0 18.0 0.00 0.00 0.00 100 895.6
20260507190907 50 222 11.0 18.0 0.00 0.00 0.00 100 896.8
20260507190808 49 223 11.0 18.0 0.00 0.00 0.00 100 901.8
20260507190707 49 223 12.0 18.0 0.00 0.00 0.00 100 898.6
20260507190613 49 224 12.0 18.0 0.00 0.00 0.00 100 898.6
20260507190506 50 228 12.0 18.0 0.00 0.00 0.00 100 898.6
20260507190412 50 227 12.0 18.0 0.00 0.00 0.00 100 896.5
20260507190305 50 227 13.0 20.0 0.00 0.00 0.00 100 900.8
20260507190209 50 229 13.0 19.0 0.00 0.00 0.00 100 903.3
20260507190103 50 228 14.0 21.0 0.00 0.00 0.00 100 895.4
20260507190009 50 226 14.0 21.0 0.00 0.00 0.00 100 897.8
20260507185903 50 228 14.0 21.0 0.00 0.00 0.00 100 897.8
20260507185803 50 225 14.0 21.0 0.00 0.00 0.00 100 900.5
20260507185701 50 226 15.0 22.0 0.00 0.00 0.00 100 895.7
20260507185607 50 224 15.0 22.0 0.00 0.00 0.00 100 895.7
20260507185500 50 224 15.0 22.0 0.00 0.00 0.00 100 904.7
20260507185406 50 225 14.0 22.0 0.00 0.00 0.00 100 904.7
20260507185259 50 228 14.0 19.0 0.00 0.00 0.00 100 897.3
20260507185204 50 229 14.0 19.0 0.00 0.00 0.00 100 895.5
20260507185058 50 230 14.0 22.0 0.00 0.00 0.00 100 896.9
20260507185003 50 228 14.0 22.0 0.00 0.00 0.00 100 901.8
20260507184857 50 227 14.0 22.0 0.00 0.00 0.00 100 897.4
20260507184758 50 227 14.0 22.0 0.00 0.00 0.00 100 896.0
20260507184602 50 227 14.0 20.0 0.00 0.00 0.00 100 904.0
20260507184401 50 226 14.0 18.0 0.00 0.00 0.00 100 895.8
20260507184256 50 226 13.0 19.0 0.00 0.00 0.00 100 897.9
20260507184200 50 226 13.0 18.0 0.00 0.00 0.00 100 897.9
20260507183749 50 224 14.0 21.0 0.00 0.00 0.00 100 899.7
20260507183239 50 224 12.0 18.0 0.00 0.00 0.00 100 899.9
20260507182736 50 224 12.0 19.0 0.00 0.00 0.00 100 897.7
20260507182234 50 221 12.0 18.0 0.00 0.00 0.00 100 900.0
20260507181730 50 222 11.0 17.0 0.00 0.00 0.00 100 900.6
20260507181218 50 219 10.0 16.0 0.00 0.00 0.00 100 900.8
20260507180820 50 219 9.0 15.0 0.00 0.00 0.00 100 901.3
20260507180715 49 219 9.0 15.0 0.00 0.00 0.00 100 900.4
20260507180213 50 208 8.0 15.0 0.00 0.00 0.00 100 895.5
20260507175711 50 208 8.0 14.0 0.00 0.00 0.00 100 895.3
20260507175207 50 207 8.0 14.0 0.00 0.00 0.00 100 900.2
20260507174705 50 207 9.0 16.0 0.00 0.00 0.00 100 898.9
20260507174203 50 211 8.0 15.0 0.00 0.00 0.00 100 896.2
20260507173702 50 209 9.0 17.0 0.00 0.00 0.00 100 895.5
20260507173159 50 210 9.0 15.0 0.00 0.00 0.00 100 895.3
20260507172657 50 208 10.0 15.0 0.00 0.00 0.00 100 895.4
20260507172155 50 210 10.0 18.0 0.00 0.00 0.00 100 896.5
20260507171653 50 207 8.0 18.0 0.00 0.00 0.00 100 895.7
20260507171152 50 209 9.0 16.0 0.00 0.00 0.00 100 896.3
20260507170649 50 208 10.0 15.0 0.00 0.00 0.00 100 895.5
20260507170147 50 207 10.0 15.0 0.00 0.00 0.00 100 897.5
20260507165747 50 205 10.0 15.0 0.00 0.00 0.00 100 898.1
20260507165643 50 205 10.0 15.0 0.00 0.00 0.00 100 895.3
20260507165348 50 208 9.0 14.0 0.00 0.00 0.00 100 896.6
20260507165147 50 208 9.0 16.0 0.00 0.00 0.00 100 895.5
20260507165018 50 210 10.0 16.0 0.00 0.00 0.00 100 900.4
20260507164749 50 213 9.0 14.0 0.00 0.00 0.00 100 897.4
20260507164520 50 208 8.0 16.0 0.00 0.00 0.00 100 899.6
20260507164512 50 208 8.0 16.0 0.00 0.00 0.00 100 895.1
20260507164010 48 199 6.0 10.0 0.00 0.00 0.00 100 899.9
20260507163507 48 195 7.0 10.0 0.00 0.00 0.00 100 895.2
20260507163314 48 192 7.0 9.0 0.00 0.00 0.00 100 897.0
20260507163004 48 201 7.0 11.0 0.00 0.00 0.00 100 899.9
20260507162901 48 201 8.0 11.0 0.00 0.00 0.00 100 899.9
20260507162659 48 201 9.0 11.0 0.00 0.00 0.00 100 895.4
20260507162459 48 200 9.0 12.0 0.00 0.00 0.00 100 900.3
20260507162257 48 199 9.0 12.0 0.00 0.00 0.00 100 895.4
20260507162056 48 194 8.0 12.0 0.00 0.00 0.00 100 898.5
20260507161957 48 192 8.0 10.0 0.00 0.00 0.00 100 903.9
20260507161745 48 185 7.0 10.0 0.00 0.00 0.00 100 896.5
20260507161621 47 183 6.0 9.0 0.00 0.00 0.00 100 897.4
20260507161420 47 187 6.0 9.0 0.00 0.00 0.00 100 895.9
20260507161219 48 190 6.0 9.0 0.00 0.00 0.00 100 896.6
20260507161017 47 198 7.0 10.0 0.00 0.00 0.00 100 903.0
20260507160811 48 205 8.0 12.0 0.00 0.00 0.00 100 896.3
20260507160710 48 206 8.0 12.0 0.00 0.00 0.00 100 895.0
20260507160458 48 214 8.0 12.0 0.00 0.00 0.00 100 897.2
20260507160256 48 208 9.0 12.0 0.00 0.00 0.00 100 894.3
20260507160055 48 206 9.0 13.0 0.00 0.00 0.00 100 899.2
20260507155954 48 205 9.0 13.0 0.00 0.00 0.00 100 901.2
20260507155851 48 205 9.0 15.0 0.00 0.00 0.00 100 894.8
20260507155646 48 205 11.0 17.0 0.00 0.00 0.00 100 895.8
20260507155611 48 205 11.0 17.0 0.00 0.00 0.00 100 895.8
20260507155444 48 205 10.0 17.0 0.00 0.00 0.00 100 897.6
20260507155348 48 206 10.0 14.0 0.00 0.00 0.00 100 899.2
20260507155243 48 208 10.0 14.0 0.00 0.00 0.00 100 899.2
20260507155145 48 208 10.0 14.0 0.00 0.00 0.00 100 895.7
20260507155042 47 209 9.0 14.0 0.00 0.00 0.00 100 899.7
20260507154942 47 204 8.0 14.0 0.00 0.00 0.00 100 896.6
20260507154838 47 202 8.0 12.0 0.00 0.00 0.00 100 896.6
20260507154745 48 200 8.0 12.0 0.00 0.00 0.00 100 897.1
20260507154637 48 202 9.0 12.0 0.00 0.00 0.00 100 897.1
20260507154542 48 211 9.0 12.0 0.00 0.00 0.00 100 895.9
20260507154437 48 211 9.0 12.0 0.00 0.00 0.00 100 897.3
20260507154342 48 223 10.0 14.0 0.00 0.00 0.00 100 897.4
20260507154236 48 234 10.0 15.0 0.00 0.00 0.00 100 897.4
20260507154141 48 238 10.0 16.0 0.00 0.00 0.00 100 898.2
20260507154035 48 239 11.0 16.0 0.00 0.00 0.00 100 900.5
20260507153936 48 240 10.0 16.0 0.00 0.00 0.00 100 899.0
20260507153840 48 238 7.0 14.0 0.00 0.00 0.00 100 895.3
20260507153835 48 238 9.0 16.0 0.00 0.00 0.00 100 895.3
20260507153740 48 238 7.0 14.0 0.00 0.00 0.00 100 895.3
20260507153737 48 245 7.0 13.0 0.00 0.00 0.00 100 900.0
20260507153634 48 241 7.0 12.0 0.00 0.00 0.00 100 900.0
20260507153539 48 245 7.0 13.0 0.00 0.00 0.00 100 900.0
20260507153433 48 247 7.0 13.0 0.00 0.00 0.00 100 896.3
20260507153337 48 245 7.0 13.0 0.00 0.00 0.00 100 900.5
20260507153232 48 239 6.0 13.0 0.00 0.00 0.00 100 898.3
20260507153136 48 239 4.0 8.0 0.00 0.00 0.00 100 895.4
20260507153032 49 100 2.0 3.0 0.00 0.00 0.00 100 896.0
20260507152932 49 150 2.0 5.0 0.00 0.00 0.00 100 902.5
20260507152855 49 84 2.0 4.0 0.00 0.00 0.00 100 899.2
20260507152830 49 117 2.0 3.0 0.00 0.00 0.00 100 896.0
20260507152824 49 75 2.0 4.0 0.00 0.00 0.00 100 897.4
20260507152735 49 100 2.0 3.0 0.00 0.00 0.00 100 896.0
20260507152629 49 100 2.0 3.0 0.00 0.00 0.00 100 896.2
20260507152534 49 96 2.0 3.0 0.00 0.00 0.00 100 896.2
20260507152428 49 90 2.0 3.0 0.00 0.00 0.00 100 896.8
20260507152333 49 84 2.0 4.0 0.00 0.00 0.00 100 899.2
20260507152227 49 76 2.0 4.0 0.00 0.00 0.00 100 900.7
20260507152132 49 75 2.0 4.0 0.00 0.00 0.00 100 897.4
20260507152026 49 74 3.0 4.0 0.00 0.00 0.00 100 899.7
20260507151926 49 80 3.0 4.0 0.00 0.00 0.00 100 896.0
20260507151825 49 86 3.0 5.0 0.00 0.00 0.00 100 896.0
20260507151730 49 86 3.0 5.0 0.00 0.00 0.00 100 896.0
20260507151624 49 80 3.0 5.0 0.00 0.00 0.00 100 896.1
20260507151528 49 72 4.0 5.0 0.00 0.00 0.00 100 897.0
20260507151422 49 68 4.0 5.0 0.00 0.00 0.00 100 900.4
20260507151351 48 48 2.0 4.0 0.00 0.00 0.00 100 896.0
20260507151327 49 62 4.0 5.0 0.00 0.00 0.00 100 900.4
20260507151221 49 62 4.0 5.0 0.00 0.00 0.00 100 902.9
20260507151125 48 59 3.0 5.0 0.00 0.00 0.00 100 895.7
20260507151020 48 50 2.0 4.0 0.00 0.00 0.00 100 895.7
20260507150920 48 48 2.0 4.0 0.00 0.00 0.00 100 896.0
20260507150819 48 50 2.0 5.0 0.00 0.00 0.00 100 897.0
20260507150724 48 52 2.0 5.0 0.00 0.00 0.00 100 900.1
20260507150618 48 56 2.0 5.0 0.00 0.00 0.00 100 900.2
20260507150523 48 60 2.0 4.0 0.00 0.00 0.00 100 895.5
20260507150418 48 56 2.0 4.0 0.00 0.00 0.00 100 895.5
20260507150322 48 56 2.0 3.0 0.00 0.00 0.00 100 895.5
20260507150217 48 52 2.0 3.0 0.00 0.00 0.00 100 896.1
20260507150121 48 42 2.0 4.0 0.00 0.00 0.00 100 896.1
20260507150016 48 45 2.0 4.0 0.00 0.00 0.00 100 898.6
20260507145916 48 32 2.0 4.0 0.00 0.00 0.00 100 903.5
20260507145815 48 28 2.0 4.0 0.00 0.00 0.00 100 894.9
20260507145720 49 352 3.0 11.0 0.00 0.00 0.00 100 896.4
20260507145615 49 299 5.0 14.0 0.00 0.00 0.00 100 900.5
20260507145519 49 294 5.0 18.0 0.00 0.00 0.00 100 896.7
20260507145414 49 293 9.0 18.0 0.00 0.00 0.00 100 898.4
20260507145317 49 292 10.0 19.0 0.00 0.00 0.00 100 899.2
20260507145212 49 294 9.0 19.0 0.00 0.00 0.00 100 899.5
20260507145009 50 301 7.0 19.0 0.00 0.00 0.00 100 900.7
20260507144909 50 317 6.0 19.0 0.00 0.00 0.00 100 900.7
20260507144656 50 328 6.0 17.0 0.00 0.00 0.00 100 898.7
20260507144451 51 331 6.0 12.0 0.00 0.00 0.00 100 898.2
20260507144246 52 339 6.0 11.0 0.00 0.00 0.00 100 899.5
20260507144042 53 341 4.0 10.0 0.00 0.00 0.00 100 895.8
20260507143941 53 341 3.0 7.0 0.00 0.00 0.00 100 897.8
20260507143837 53 339 2.0 6.0 0.00 0.00 0.00 100 900.2
20260507143632 53 242 2.0 3.0 0.00 0.00 0.00 100 901.5
20260507143429 53 233 2.0 5.0 0.00 0.00 0.00 100 897.2
20260507143332 53 233 3.0 6.0 0.00 0.00 0.00 100 897.0
20260507143229 53 229 3.0 6.0 0.00 0.00 0.00 100 897.0
20260507143131 53 211 3.0 6.0 0.00 0.00 0.00 100 896.8
20260507143028 53 221 3.0 6.0 0.00 0.00 0.00 100 896.8
20260507142928 53 224 4.0 7.0 0.00 0.00 0.00 100 896.9
20260507142827 53 228 4.0 7.0 0.00 0.00 0.00 100 896.9
20260507142729 53 229 4.0 7.0 0.00 0.00 0.00 100 897.7
20260507142625 53 230 4.0 7.0 0.00 0.00 0.00 100 899.4
20260507142527 53 217 4.0 6.0 0.00 0.00 0.00 100 899.4
20260507142425 53 210 4.0 6.0 0.00 0.00 0.00 100 900.6
20260507142327 53 209 3.0 6.0 0.00 0.00 0.00 100 897.0
20260507142224 53 208 4.0 8.0 0.00 0.00 0.00 100 897.0
20260507142126 53 210 4.0 8.0 0.00 0.00 0.00 100 897.1
20260507142024 53 216 5.0 9.0 0.00 0.00 0.00 100 897.1
20260507141925 53 216 5.0 9.0 0.00 0.00 0.00 100 897.9
20260507141823 53 227 5.0 9.0 0.00 0.00 0.00 100 899.0
20260507141726 53 224 5.0 9.0 0.00 0.00 0.00 100 902.3
20260507141622 53 218 4.0 9.0 0.00 0.00 0.00 100 897.0
20260507141525 53 206 4.0 7.0 0.00 0.00 0.00 100 897.2
20260507141421 53 205 4.0 7.0 0.00 0.00 0.00 100 896.9
20260507141324 53 200 4.0 7.0 0.00 0.00 0.00 100 896.9
20260507141220 53 198 4.0 7.0 0.00 0.00 0.00 100 896.9
20260507141122 53 200 5.0 9.0 0.00 0.00 0.00 100 896.7
20260507141020 53 201 5.0 9.0 0.00 0.00 0.00 100 896.7
20260507140921 52 202 5.0 9.0 0.00 0.00 0.00 100 896.7
20260507140820 52 203 5.0 9.0 0.00 0.00 0.00 100 897.6
20260507140723 52 206 5.0 9.0 0.00 0.00 0.00 100 900.0
20260507140619 53 206 5.0 9.0 0.00 0.00 0.00 100 898.5
20260507140521 53 206 4.0 8.0 0.00 0.00 0.00 100 897.2
20260507140419 53 211 4.0 7.0 0.00 0.00 0.00 100 897.9
20260507140321 53 226 4.0 7.0 0.00 0.00 0.00 100 902.5
20260507140217 53 234 4.0 6.0 0.00 0.00 0.00 100 902.5
20260507140119 53 228 3.0 5.0 0.00 0.00 0.00 100 902.5
20260507140017 53 225 4.0 6.0 0.00 0.00 0.00 100 897.3
20260507135917 53 224 4.0 7.0 0.00 0.00 0.00 100 897.3
20260507135816 53 222 4.0 7.0 0.00 0.00 0.00 100 897.1
20260507135718 53 223 4.0 7.0 0.00 0.00 0.00 100 897.0
20260507135615 53 219 4.0 7.0 0.00 0.00 0.00 100 896.9
20260507135517 53 215 4.0 6.0 0.00 0.00 0.00 100 896.9
20260507135413 53 215 4.0 7.0 0.00 0.00 0.00 100 896.9
20260507135211 53 228 4.0 7.0 0.00 0.00 0.00 100 900.1
20260507135007 53 235 5.0 8.0 0.00 0.00 0.00 100 900.2
20260507134906 53 237 5.0 8.0 0.00 0.00 0.00 100 900.2
20260507134651 53 238 6.0 9.0 0.00 0.00 0.00 100 897.4
20260507134550 53 238 6.0 9.0 0.00 0.00 0.00 100 899.2
20260507134447 53 238 6.0 9.0 0.00 0.00 0.00 100 902.9
20260507134243 53 238 5.0 9.0 0.00 0.00 0.00 100 896.6
20260507134039 53 235 5.0 9.0 0.00 0.00 0.00 100 897.3
20260507133835 53 232 6.0 10.0 0.00 0.00 0.00 100 896.6
20260507133631 53 231 8.0 12.0 0.00 0.00 0.00 100 896.7
20260507133530 53 233 8.0 12.0 0.00 0.00 0.00 100 896.7
20260507133315 53 231 8.0 11.0 0.00 0.00 0.00 100 901.3
20260507133215 53 231 8.0 11.0 0.00 0.00 0.00 100 898.4
20260507133111 53 232 8.0 12.0 0.00 0.00 0.00 100 901.0
20260507132906 53 236 8.0 12.0 0.00 0.00 0.00 100 896.9
20260507132702 52 238 8.0 10.0 0.00 0.00 0.00 100 899.1
20260507132457 53 240 7.0 10.0 0.00 0.00 0.00 100 895.4
20260507132253 53 239 7.0 10.0 0.00 0.00 0.00 100 896.3
20260507132152 53 236 7.0 11.0 0.00 0.00 0.00 100 896.3
20260507131937 53 223 7.0 11.0 0.00 0.00 0.00 100 902.0
20260507131836 53 222 7.0 11.0 0.00 0.00 0.00 100 896.3
20260507131733 53 226 7.0 10.0 0.00 0.00 0.00 100 896.1
20260507131529 53 228 6.0 10.0 0.00 0.00 0.00 100 896.7
20260507131326 53 224 6.0 9.0 0.00 0.00 0.00 100 901.5
20260507131122 53 244 4.0 9.0 0.00 0.00 0.00 100 901.1
20260507130917 53 269 3.0 7.0 0.00 0.00 0.00 100 896.9
20260507130816 53 266 3.0 7.0 0.00 0.00 0.00 100 896.9
20260507130603 53 291 2.0 7.0 0.00 0.00 0.00 100 901.6
20260507130503 54 291 3.0 7.0 0.00 0.00 0.00 100 897.1
20260507130401 53 291 3.0 7.0 0.00 0.00 0.00 100 897.1
20260507130158 53 265 5.0 9.0 0.00 0.00 0.00 100 896.8
20260507125954 53 238 6.0 9.0 0.00 0.00 0.00 100 896.6
20260507125749 53 229 5.0 11.0 0.00 0.00 0.00 100 897.2
20260507125546 53 225 5.0 11.0 0.00 0.00 0.00 100 900.4
20260507125444 53 226 4.0 11.0 0.00 0.00 0.00 100 900.4
20260507125229 53 240 3.0 8.0 0.00 0.00 0.00 100 897.7
20260507125129 53 235 3.0 8.0 0.00 0.00 0.00 100 897.6
20260507125025 53 0 2.0 8.0 0.00 0.00 0.00 100 897.6
20260507124821 53 76 1.0 2.0 0.00 0.00 0.00 100 898.0
20260507124616 53 59 1.0 2.0 0.00 0.00 0.00 100 898.0
20260507124411 53 0 1.0 2.0 0.00 0.00 0.00 100 898.0
20260507124207 52 297 1.0 1.0 0.00 0.00 0.00 100 897.8
20260507124106 52 324 1.0 2.0 0.00 0.00 0.00 100 897.8
20260507123852 53 6 2.0 4.0 0.00 0.00 0.00 100 897.7
20260507123750 53 7 2.0 4.0 0.00 0.00 0.00 100 897.4
20260507123647 53 1 2.0 4.0 0.00 0.00 0.00 100 898.0
20260507123443 52 347 2.0 4.0 0.00 0.00 0.00 100 898.0
20260507123240 53 338 2.0 5.0 0.00 0.00 0.00 100 901.3
20260507122731 53 237 6.0 12.0 0.00 0.00 0.00 100 897.6
20260507122415 53 239 7.0 12.0 0.00 0.00 0.00 100 897.0
20260507121904 53 241 7.0 14.0 0.00 0.00 0.00 100 897.2
20260507121353 53 240 4.0 8.0 0.00 0.00 0.00 100 897.2
20260507120851 52 190 3.0 5.0 0.00 0.00 0.00 100 897.0
20260507120348 53 237 3.0 5.0 0.00 0.00 0.00 100 897.9
20260507115846 52 211 2.0 3.0 0.00 0.00 0.00 100 898.1
20260507115342 53 185 2.0 4.0 0.00 0.00 0.00 100 897.0
20260507114840 53 243 1.0 2.0 0.00 0.00 0.00 100 901.3
20260507114337 53 250 1.0 2.0 0.00 0.00 0.00 100 897.4
20260507113835 52 253 2.0 3.0 0.00 0.00 0.00 100 897.6
20260507113332 53 224 2.0 3.0 0.00 0.00 0.00 100 896.6
20260507112830 53 256 2.0 4.0 0.00 0.00 0.00 100 899.4
20260507112658 53 287 1.0 3.0 0.00 0.00 0.00 100 897.3
20260507112457 53 244 2.0 4.0 0.00 0.00 0.00 100 898.7
20260507112256 53 244 2.0 4.0 0.00 0.00 0.00 100 898.7
20260507112154 53 240 2.0 4.0 0.00 0.00 0.00 100 900.8
20260507112039 53 244 2.0 3.0 0.00 0.00 0.00 100 897.5
20260507111836 53 263 1.0 3.0 0.00 0.00 0.00 100 898.2
20260507111631 53 294 2.0 3.0 0.00 0.00 0.00 100 897.4
20260507111530 53 293 2.0 3.0 0.00 0.00 0.00 100 897.3
20260507111427 53 294 2.0 4.0 0.00 0.00 0.00 100 897.3
20260507111223 53 292 2.0 4.0 0.00 0.00 0.00 100 897.2
20260507111020 53 279 2.0 3.0 0.00 0.00 0.00 100 897.3
20260507110816 53 295 2.0 4.0 0.00 0.00 0.00 100 897.0
20260507110614 53 297 2.0 5.0 0.00 0.00 0.00 100 897.0
20260507110515 53 297 2.0 5.0 0.00 0.00 0.00 100 897.7
20260507110413 53 298 2.0 5.0 0.00 0.00 0.00 100 900.5
20260507110319 53 303 2.0 4.0 0.00 0.00 0.00 100 897.3
20260507110213 53 298 2.0 4.0 0.00 0.00 0.00 100 897.1
20260507110118 53 298 2.0 5.0 0.00 0.00 0.00 100 897.1
20260507110012 53 297 2.0 5.0 0.00 0.00 0.00 100 897.1
20260507105918 53 296 2.0 6.0 0.00 0.00 0.00 100 897.1
20260507105811 53 297 3.0 6.0 0.00 0.00 0.00 100 897.0
20260507105715 53 299 3.0 6.0 0.00 0.00 0.00 100 897.3
20260507105610 53 300 4.0 9.0 0.00 0.00 0.00 100 897.8
20260507105511 53 299 3.0 9.0 0.00 0.00 0.00 100 899.2
20260507105409 53 308 3.0 9.0 0.00 0.00 0.00 100 903.0
20260507105315 53 316 3.0 9.0 0.00 0.00 0.00 100 896.9
20260507105208 53 315 4.0 8.0 0.00 0.00 0.00 100 897.0
20260507105007 53 299 4.0 8.0 0.00 0.00 0.00 100 896.8
20260507104909 53 297 5.0 8.0 0.00 0.00 0.00 100 896.8
20260507104806 53 298 4.0 8.0 0.00 0.00 0.00 100 897.2
20260507104709 53 296 3.0 7.0 0.00 0.00 0.00 100 898.1
20260507104606 53 296 3.0 6.0 0.00 0.00 0.00 100 900.4
20260507104506 53 295 2.0 6.0 0.00 0.00 0.00 100 900.6
20260507104405 53 262 2.0 5.0 0.00 0.00 0.00 100 897.4
20260507104203 53 255 3.0 6.0 0.00 0.00 0.00 100 897.0
20260507104107 53 252 3.0 6.0 0.00 0.00 0.00 100 897.0
20260507104003 53 251 3.0 7.0 0.00 0.00 0.00 100 896.9
20260507103905 53 251 3.0 7.0 0.00 0.00 0.00 100 897.0
20260507103802 53 250 4.0 7.0 0.00 0.00 0.00 100 897.0
20260507103600 53 252 5.0 8.0 0.00 0.00 0.00 100 897.4
20260507103501 53 252 5.0 8.0 0.00 0.00 0.00 100 900.9
20260507103359 53 252 6.0 9.0 0.00 0.00 0.00 100 896.4
20260507103303 53 251 5.0 9.0 0.00 0.00 0.00 100 896.4
20260507103158 53 246 6.0 9.0 0.00 0.00 0.00 100 896.2
20260507102958 53 247 5.0 8.0 0.00 0.00 0.00 100 898.2
20260507102755 53 254 4.0 8.0 0.00 0.00 0.00 100 896.8
20260507102552 53 252 3.0 4.0 0.00 0.00 0.00 100 896.9
20260507102451 53 252 3.0 5.0 0.00 0.00 0.00 100 896.9
20260507102314 53 257 3.0 5.0 0.00 0.00 0.00 100 899.4
20260507102111 53 256 3.0 5.0 0.00 0.00 0.00 100 897.0
20260507101906 53 272 3.0 7.0 0.00 0.00 0.00 100 897.0
20260507101806 53 283 3.0 7.0 0.00 0.00 0.00 100 897.0
20260507101552 53 296 2.0 7.0 0.00 0.00 0.00 100 896.8
20260507101451 53 296 2.0 5.0 0.00 0.00 0.00 100 896.9
20260507101349 53 282 2.0 5.0 0.00 0.00 0.00 100 896.8
20260507101143 53 279 2.0 4.0 0.00 0.00 0.00 100 897.6
20260507100940 53 280 3.0 6.0 0.00 0.00 0.00 100 901.0
20260507100736 53 294 3.0 6.0 0.00 0.00 0.00 100 896.7
20260507100532 53 297 4.0 7.0 0.00 0.00 0.00 100 896.5
20260507100432 53 297 4.0 7.0 0.00 0.00 0.00 100 896.5
20260507100124 53 294 5.0 13.0 0.00 0.00 0.00 100 898.3
20260507100023 53 285 5.0 13.0 0.00 0.00 0.00 100 900.7
20260507095920 53 274 5.0 12.0 0.00 0.00 0.00 100 896.3
20260507095715 53 256 6.0 12.0 0.00 0.00 0.00 100 897.5
20260507095512 53 251 6.0 11.0 0.00 0.00 0.00 100 899.5
20260507095307 53 244 7.0 16.0 0.00 0.00 0.00 100 896.8
20260507095104 53 245 9.0 16.0 0.00 0.00 0.00 100 896.5
20260507095002 53 243 9.0 16.0 0.00 0.00 0.00 100 896.5
20260507094747 53 244 10.0 14.0 0.00 0.00 0.00 100 899.5
20260507094645 53 242 10.0 18.0 0.00 0.00 0.00 100 895.8
20260507094543 53 242 11.0 18.0 0.00 0.00 0.00 100 896.5
20260507094339 53 244 11.0 18.0 0.00 0.00 0.00 100 896.3
20260507094135 53 244 8.0 16.0 0.00 0.00 0.00 100 901.8
20260507093931 53 246 8.0 12.0 0.00 0.00 0.00 100 896.0
20260507093727 54 244 6.0 12.0 0.00 0.00 0.00 100 898.2
20260507093627 54 243 6.0 10.0 0.00 0.00 0.00 100 898.2
20260507093412 54 248 6.0 9.0 0.00 0.00 0.00 100 896.4
20260507093312 54 249 6.0 10.0 0.00 0.00 0.00 100 897.1
20260507093205 54 240 6.0 11.0 0.00 0.00 0.00 100 898.3
20260507093001 54 238 6.0 11.0 0.00 0.00 0.00 100 896.3
20260507092757 53 236 5.0 10.0 0.00 0.00 0.00 100 896.4
20260507092552 53 209 7.0 14.0 0.00 0.00 0.00 100 896.2
20260507092348 54 209 9.0 15.0 0.00 0.00 0.00 100 897.4
20260507092248 54 215 10.0 15.0 0.00 0.00 0.00 100 897.4
20260507092033 54 229 11.0 18.0 0.00 0.00 0.00 100 895.8
20260507091932 54 231 11.0 18.0 0.00 0.00 0.00 100 896.4
20260507091829 54 224 10.0 18.0 0.00 0.00 0.00 100 897.6
20260507091626 54 225 10.0 17.0 0.00 0.00 0.00 100 896.1
20260507091423 54 231 11.0 15.0 0.00 0.00 0.00 100 895.9
20260507091219 53 232 12.0 17.0 0.00 0.00 0.00 100 899.0
20260507091015 53 219 12.0 17.0 0.00 0.00 0.00 100 895.3
20260507090915 53 211 11.0 19.0 0.00 0.00 0.00 100 895.3
20260507090700 53 211 12.0 20.0 0.00 0.00 0.00 100 897.5
20260507090559 53 224 13.0 20.0 0.00 0.00 0.00 100 901.0
20260507090455 53 230 13.0 20.0 0.00 0.00 0.00 100 895.2
20260507090253 53 236 12.0 20.0 0.00 0.00 0.00 100 897.1
20260507090049 53 236 12.0 19.0 0.00 0.00 0.00 100 896.2
20260507085844 53 233 12.0 18.0 0.00 0.00 0.00 100 895.7
20260507085640 53 235 12.0 19.0 0.00 0.00 0.00 100 896.1
20260507085540 53 235 12.0 19.0 0.00 0.00 0.00 100 896.1
20260507085324 53 239 11.0 19.0 0.00 0.00 0.00 100 898.3
20260507085223 53 243 10.0 16.0 0.00 0.00 0.00 100 895.7
20260507085120 53 246 10.0 15.0 0.00 0.00 0.00 100 895.7
20260507084915 53 244 9.0 15.0 0.00 0.00 0.00 100 895.4
20260507084711 53 242 10.0 16.0 0.00 0.00 0.00 100 895.5
20260507084507 53 244 10.0 18.0 0.00 0.00 0.00 100 901.4
20260507084303 53 234 12.0 19.0 0.00 0.00 0.00 100 896.1
20260507084202 53 233 11.0 19.0 0.00 0.00 0.00 100 896.1
20260507083946 53 238 11.0 19.0 0.00 0.00 0.00 100 894.9
20260507083845 53 244 11.0 21.0 0.00 0.00 0.00 100 895.7
20260507083739 53 240 13.0 21.0 0.00 0.00 0.00 100 899.2
20260507083534 53 239 13.0 21.0 0.00 0.00 0.00 100 896.2
20260507083329 53 243 12.0 20.0 0.00 0.00 0.00 100 897.4
20260507083125 53 249 12.0 20.0 0.00 0.00 0.00 100 895.6
20260507082921 53 248 12.0 20.0 0.00 0.00 0.00 100 896.8
20260507082821 53 248 11.0 20.0 0.00 0.00 0.00 100 899.5
20260507082559 53 243 10.0 17.0 0.00 0.00 0.00 100 895.5
20260507082359 54 235 14.0 20.0 0.00 0.00 0.00 100 895.3
20260507082157 53 240 14.0 20.0 0.00 0.00 0.00 100 895.3
20260507082056 53 243 13.0 20.0 0.00 0.00 0.00 100 895.5
20260507081847 53 252 10.0 18.0 0.00 0.00 0.00 100 898.7
20260507081627 53 253 11.0 19.0 0.00 0.00 0.00 100 895.7
20260507081422 53 252 11.0 19.0 0.00 0.00 0.00 100 900.2
20260507081323 53 252 11.0 19.0 0.00 0.00 0.00 100 895.4
20260507081222 53 251 12.0 19.0 0.00 0.00 0.00 100 896.4
20260507081021 53 250 12.0 19.0 0.00 0.00 0.00 100 894.7
20260507080820 53 250 14.0 20.0 0.00 0.00 0.00 100 894.1
20260507080619 53 239 13.0 20.0 0.00 0.00 0.00 100 901.7
20260507080418 53 238 13.0 20.0 0.00 0.00 0.00 100 901.7
20260507080318 53 240 13.0 20.0 0.00 0.00 0.00 100 894.6
20260507080032 53 238 15.0 23.0 0.00 0.00 0.00 100 896.0
20260507075916 53 236 17.0 24.0 0.00 0.00 0.00 100 901.4
20260507075829 53 236 17.0 24.0 0.00 0.00 0.00 100 901.4
20260507075629 53 238 19.0 26.0 0.00 0.00 0.00 100 896.1
20260507075529 53 235 18.0 27.0 0.00 0.00 0.00 100 894.0
20260507075337 53 235 18.0 27.0 0.00 0.00 0.00 100 895.2
20260507075136 53 240 15.0 24.0 0.00 0.00 0.00 100 898.1
20260507074935 53 243 17.0 24.0 0.00 0.00 0.00 100 894.3
20260507074732 53 242 18.0 25.0 0.00 0.00 0.00 100 895.3
20260507074530 52 239 18.0 28.0 0.00 0.00 0.00 100 895.3
20260507074430 52 237 18.0 28.0 0.00 0.00 0.00 100 899.9
20260507074329 52 238 19.0 28.0 0.00 0.00 0.00 100 895.6
20260507074129 52 239 18.0 26.0 0.00 0.00 0.00 100 894.0
20260507073925 52 243 18.0 28.0 0.00 0.00 0.00 100 898.6
20260507073836 52 243 18.0 28.0 0.00 0.00 0.00 100 896.0
20260507073723 52 243 18.0 28.0 0.00 0.00 0.00 100 897.1
20260507073631 52 244 17.0 28.0 0.00 0.00 0.00 100 897.1
20260507073522 52 239 17.0 28.0 0.00 0.00 0.00 100 894.8
20260507073423 52 239 16.0 23.0 0.00 0.00 0.00 100 898.4
20260507073322 52 233 18.0 26.0 0.00 0.00 0.00 100 893.9
20260507073229 52 232 18.0 26.0 0.00 0.00 0.00 100 897.9
20260507073120 52 230 18.0 26.0 0.00 0.00 0.00 100 897.9
20260507073028 52 230 17.0 26.0 0.00 0.00 0.00 100 894.1
20260507072920 52 230 18.0 26.0 0.00 0.00 0.00 100 896.9
20260507072828 52 230 18.0 27.0 0.00 0.00 0.00 100 895.7
20260507072719 52 230 19.0 27.0 0.00 0.00 0.00 100 893.5
20260507072627 52 230 19.0 27.0 0.00 0.00 0.00 100 895.5
20260507072519 52 232 18.0 27.0 0.00 0.00 0.00 100 899.2
20260507072427 52 232 17.0 26.0 0.00 0.00 0.00 100 899.2
20260507072419 52 232 17.0 26.0 0.00 0.00 0.00 100 898.8
20260507072318 52 230 16.0 26.0 0.00 0.00 0.00 100 898.8
20260507072226 52 232 16.0 26.0 0.00 0.00 0.00 100 893.6
20260507072117 52 230 17.0 26.0 0.00 0.00 0.00 100 894.0
20260507072029 52 232 17.0 26.0 0.00 0.00 0.00 100 896.1
20260507071916 52 234 17.0 26.0 0.00 0.00 0.00 100 900.7
20260507071824 52 234 16.0 26.0 0.00 0.00 0.00 100 893.2
20260507071715 51 229 16.0 26.0 0.00 0.00 0.00 100 893.2
20260507071623 51 234 16.0 24.0 0.00 0.00 0.00 100 895.7
20260507071515 51 235 16.0 24.0 0.00 0.00 0.00 100 895.7
20260507071416 51 235 16.0 24.0 0.00 0.00 0.00 100 895.5
20260507071314 52 237 16.0 24.0 0.00 0.00 0.00 100 893.3
20260507071221 52 235 16.0 24.0 0.00 0.00 0.00 100 893.3
20260507071114 52 230 16.0 22.0 0.00 0.00 0.00 100 894.1
20260507071025 51 228 17.0 23.0 0.00 0.00 0.00 100 896.6
20260507070913 51 228 17.0 23.0 0.00 0.00 0.00 100 896.4
20260507070821 51 230 17.0 23.0 0.00 0.00 0.00 100 896.9
20260507070711 51 234 18.0 24.0 0.00 0.00 0.00 100 893.3
20260507070508 51 234 18.0 24.0 0.00 0.00 0.00 100 894.8
20260507070408 51 238 17.0 24.0 0.00 0.00 0.00 100 894.8
20260507070307 51 238 16.0 24.0 0.00 0.00 0.00 100 897.1
20260507070111 51 237 16.0 24.0 0.00 0.00 0.00 100 894.1
20260507070106 51 237 16.0 24.0 0.00 0.00 0.00 100 898.0
20260507065906 51 236 19.0 28.0 0.00 0.00 0.00 100 893.4
20260507065743 51 233 18.0 26.0 0.00 0.00 0.00 100 897.7
20260507065706 51 233 18.0 26.0 0.00 0.00 0.00 100 897.7
20260507065503 51 228 18.0 28.0 0.00 0.00 0.00 100 892.7
20260507065401 51 226 20.0 30.0 0.00 0.00 0.00 100 895.7
20260507065300 51 231 20.0 30.0 0.00 0.00 0.00 100 897.8
20260507065059 51 233 19.0 30.0 0.00 0.00 0.00 100 892.9
20260507064901 51 240 18.0 28.0 0.00 0.00 0.00 100 897.4
20260507064858 51 240 18.0 28.0 0.00 0.00 0.00 100 898.7
20260507064657 51 241 20.0 30.0 0.00 0.00 0.00 100 892.3
20260507064456 51 232 22.0 33.0 0.00 0.00 0.00 100 901.1
20260507064356 51 230 20.0 33.0 0.00 0.00 0.00 100 892.0
20260507064255 51 234 20.0 33.0 0.00 0.00 0.00 100 892.0
20260507064054 51 233 18.0 29.0 0.00 0.00 0.00 100 901.5
20260507063854 51 236 19.0 29.0 0.00 0.00 0.00 100 892.8
20260507063654 51 236 16.0 25.0 0.00 0.00 0.00 100 897.2
20260507063453 51 229 17.0 30.0 0.00 0.00 0.00 100 892.9
20260507063353 51 229 17.0 30.0 0.00 0.00 0.00 100 893.7
20260507063252 51 233 18.0 30.0 0.00 0.00 0.00 100 895.8
20260507063051 51 235 18.0 28.0 0.00 0.00 0.00 100 896.4
20260507062851 51 232 20.0 31.0 0.00 0.00 0.00 100 894.0
20260507062650 51 229 20.0 33.0 0.00 0.00 0.00 100 896.1
20260507062447 51 227 20.0 33.0 0.00 0.00 0.00 100 892.0
20260507062346 51 219 19.0 32.0 0.00 0.00 0.00 100 893.7
20260507062140 51 216 20.0 34.0 0.00 0.00 0.00 100 891.8
20260507061933 50 214 20.0 34.0 0.00 0.00 0.00 100 895.3
20260507061838 51 214 20.0 34.0 0.00 0.00 0.00 100 896.0
20260507061733 51 214 21.0 34.0 0.00 0.00 0.00 100 891.8
20260507061633 50 216 21.0 33.0 0.00 0.00 0.00 100 897.3
20260507061531 51 228 21.0 33.0 0.00 0.00 0.00 100 897.3
20260507061435 51 230 21.0 33.0 0.00 0.00 0.00 100 895.8
20260507061330 50 230 22.0 34.0 0.00 0.00 0.00 100 892.3
20260507061236 50 230 22.0 34.0 0.00 0.00 0.00 100 899.6
20260507061129 51 227 22.0 34.0 0.00 0.00 0.00 100 891.6
20260507061033 51 224 21.0 34.0 0.00 0.00 0.00 100 891.6
20260507060928 51 225 22.0 34.0 0.00 0.00 0.00 100 893.0
20260507060834 51 224 21.0 34.0 0.00 0.00 0.00 100 893.0
20260507060727 51 225 22.0 34.0 0.00 0.00 0.00 100 894.7
20260507060627 51 222 22.0 33.0 0.00 0.00 0.00 100 894.7
20260507060525 51 222 22.0 35.0 0.00 0.00 0.00 100 892.0
20260507060429 50 221 22.0 35.0 0.00 0.00 0.00 100 894.5
20260507060323 50 221 23.0 36.0 0.00 0.00 0.00 100 899.4
20260507060228 50 221 23.0 36.0 0.00 0.00 0.00 100 891.2
20260507060123 50 221 22.0 36.0 0.00 0.00 0.00 100 898.9
20260507060026 50 222 22.0 36.0 0.00 0.00 0.00 100 898.9
20260507055920 50 222 22.0 36.0 0.00 0.00 0.00 100 898.9
20260507055717 50 218 23.0 36.0 0.00 0.00 0.00 100 894.6
20260507055616 50 221 24.0 38.0 0.00 0.00 0.00 100 892.4
20260507055510 50 221 23.0 38.0 0.00 0.00 0.00 100 892.4
20260507055308 50 229 22.0 38.0 0.00 0.00 0.00 100 900.2
20260507055213 50 229 21.0 36.0 0.00 0.00 0.00 100 891.7
20260507055107 50 229 21.0 36.0 0.00 0.00 0.00 100 894.6
20260507055012 50 229 21.0 36.0 0.00 0.00 0.00 100 894.6
20260507054906 50 227 20.0 36.0 0.00 0.00 0.00 100 893.1
20260507054821 50 227 19.0 31.0 0.00 0.00 0.00 100 893.1
20260507054706 50 221 20.0 34.0 0.00 0.00 0.00 100 899.2
20260507054606 50 221 20.0 34.0 0.00 0.00 0.00 100 899.2
20260507054505 50 220 20.0 34.0 0.00 0.00 0.00 100 891.5
20260507054410 50 218 21.0 34.0 0.00 0.00 0.00 100 893.2
20260507054304 50 218 22.0 34.0 0.00 0.00 0.00 100 900.2
20260507054208 50 220 22.0 34.0 0.00 0.00 0.00 100 892.6
20260507054103 50 220 22.0 34.0 0.00 0.00 0.00 100 892.7
20260507054008 50 218 22.0 36.0 0.00 0.00 0.00 100 899.1
20260507053902 50 218 23.0 36.0 0.00 0.00 0.00 100 896.3
20260507053806 50 215 22.0 36.0 0.00 0.00 0.00 100 893.6
20260507053701 50 217 22.0 34.0 0.00 0.00 0.00 100 898.5
20260507053601 50 214 22.0 36.0 0.00 0.00 0.00 100 890.7
20260507053459 50 214 23.0 36.0 0.00 0.00 0.00 100 890.7
20260507053404 50 211 23.0 36.0 0.00 0.00 0.00 100 892.2
20260507053259 50 211 23.0 36.0 0.00 0.00 0.00 100 899.4
20260507053204 50 214 22.0 36.0 0.00 0.00 0.00 100 893.2
20260507053058 50 213 22.0 37.0 0.00 0.00 0.00 100 891.1
20260507053003 50 219 23.0 37.0 0.00 0.00 0.00 100 898.5
20260507052856 50 222 22.0 37.0 0.00 0.00 0.00 100 894.4
20260507052801 50 221 21.0 37.0 0.00 0.00 0.00 100 892.6
20260507052656 50 222 21.0 37.0 0.00 0.00 0.00 100 899.1
20260507052556 50 222 19.0 37.0 0.00 0.00 0.00 100 895.8
20260507052455 50 217 20.0 36.0 0.00 0.00 0.00 100 895.8
20260507052400 50 218 21.0 36.0 0.00 0.00 0.00 100 895.8
20260507052254 50 214 21.0 40.0 0.00 0.00 0.00 100 893.4
20260507052159 50 215 22.0 40.0 0.00 0.00 0.00 100 895.7
20260507052053 50 216 22.0 40.0 0.00 0.00 0.00 100 892.0
20260507051957 50 217 21.0 40.0 0.00 0.00 0.00 100 894.1
20260507051852 50 219 22.0 33.0 0.00 0.00 0.00 100 898.3
20260507051756 50 218 21.0 33.0 0.00 0.00 0.00 100 893.9
20260507051651 50 217 22.0 33.0 0.00 0.00 0.00 100 893.5
20260507051552 50 218 22.0 34.0 0.00 0.00 0.00 100 897.0
20260507051450 50 215 21.0 34.0 0.00 0.00 0.00 100 892.4
20260507051356 50 215 21.0 34.0 0.00 0.00 0.00 100 896.7
20260507051249 50 214 22.0 34.0 0.00 0.00 0.00 100 895.1
20260507051153 50 212 20.0 32.0 0.00 0.00 0.00 100 895.1
20260507051048 50 218 20.0 32.0 0.00 0.00 0.00 100 891.5
20260507050953 50 218 21.0 32.0 0.00 0.00 0.00 100 894.9
20260507050847 50 218 20.0 32.0 0.00 0.00 0.00 100 897.8
20260507050752 50 218 21.0 34.0 0.00 0.00 0.00 100 891.2
20260507050647 50 224 20.0 34.0 0.00 0.00 0.00 100 894.3
20260507050547 50 223 21.0 34.0 0.00 0.00 0.00 100 897.2
20260507050446 50 225 23.0 34.0 0.00 0.00 0.00 100 891.1
20260507050350 50 222 22.0 36.0 0.00 0.00 0.00 100 894.5
20260507050245 50 222 22.0 36.0 0.00 0.00 0.00 100 895.4
20260507050150 50 220 22.0 36.0 0.00 0.00 0.00 100 892.0
20260507050044 50 220 23.0 38.0 0.00 0.00 0.00 100 895.8
20260507045948 50 221 24.0 42.0 0.00 0.00 0.00 100 895.8
20260507045843 50 220 24.0 42.0 0.00 0.00 0.00 100 893.6
20260507045746 50 225 25.0 42.0 0.00 0.00 0.00 100 891.4
20260507045642 50 226 25.0 42.0 0.00 0.00 0.00 100 895.0
20260507045543 50 227 24.0 38.0 0.00 0.00 0.00 100 893.2
20260507045440 50 228 24.0 38.0 0.00 0.00 0.00 100 892.9
20260507045344 50 227 25.0 38.0 0.00 0.00 0.00 100 891.9
20260507045238 50 226 24.0 35.0 0.00 0.00 0.00 100 896.5
20260507045144 50 226 24.0 35.0 0.00 0.00 0.00 100 893.5
20260507045038 50 225 24.0 35.0 0.00 0.00 0.00 100 891.5
20260507044942 50 226 24.0 35.0 0.00 0.00 0.00 100 896.9
20260507044837 50 225 24.0 37.0 0.00 0.00 0.00 100 895.8
20260507044742 50 219 24.0 37.0 0.00 0.00 0.00 100 895.8
20260507044636 50 219 24.0 37.0 0.00 0.00 0.00 100 892.2
20260507044538 50 217 23.0 37.0 0.00 0.00 0.00 100 896.9
20260507044436 50 214 23.0 36.0 0.00 0.00 0.00 100 893.8
20260507044339 50 217 22.0 36.0 0.00 0.00 0.00 100 893.8
20260507044235 50 221 22.0 36.0 0.00 0.00 0.00 100 896.9
20260507044138 50 221 23.0 36.0 0.00 0.00 0.00 100 894.0
20260507044034 50 220 22.0 34.0 0.00 0.00 0.00 100 893.4
20260507043936 50 221 22.0 33.0 0.00 0.00 0.00 100 897.3
20260507043832 50 223 22.0 33.0 0.00 0.00 0.00 100 897.3
20260507043736 50 223 22.0 32.0 0.00 0.00 0.00 100 891.5
20260507043631 50 218 22.0 33.0 0.00 0.00 0.00 100 895.7
20260507043532 50 218 24.0 36.0 0.00 0.00 0.00 100 895.7
20260507043430 50 217 24.0 38.0 0.00 0.00 0.00 100 892.8
20260507043334 50 218 23.0 38.0 0.00 0.00 0.00 100 891.5
20260507043229 50 227 23.0 38.0 0.00 0.00 0.00 100 894.9
20260507043133 50 227 23.0 38.0 0.00 0.00 0.00 100 891.4
20260507043028 50 229 22.0 37.0 0.00 0.00 0.00 100 897.3
20260507042931 50 234 24.0 37.0 0.00 0.00 0.00 100 896.3
20260507042827 50 231 24.0 32.0 0.00 0.00 0.00 100 893.4
20260507042731 50 228 24.0 32.0 0.00 0.00 0.00 100 892.8
20260507042626 50 226 24.0 38.0 0.00 0.00 0.00 100 894.4
20260507042527 50 223 24.0 38.0 0.00 0.00 0.00 100 893.7
20260507042426 50 222 23.0 38.0 0.00 0.00 0.00 100 891.4
20260507042328 50 222 21.0 32.0 0.00 0.00 0.00 100 891.4
20260507042223 50 219 20.0 29.0 0.00 0.00 0.00 100 895.8
20260507042126 50 216 18.0 29.0 0.00 0.00 0.00 100 895.6
20260507042022 50 215 18.0 29.0 0.00 0.00 0.00 100 891.7
20260507041925 50 215 19.0 32.0 0.00 0.00 0.00 100 896.9
20260507041821 50 217 19.0 32.0 0.00 0.00 0.00 100 896.9
20260507041725 50 223 19.0 32.0 0.00 0.00 0.00 100 892.1
20260507041621 50 221 19.0 32.0 0.00 0.00 0.00 100 894.1
20260507041521 50 221 18.0 30.0 0.00 0.00 0.00 100 892.7
20260507041408 50 219 18.0 30.0 0.00 0.00 0.00 100 892.7
20260507041314 50 214 18.0 30.0 0.00 0.00 0.00 100 895.8
20260507041208 50 217 18.0 30.0 0.00 0.00 0.00 100 895.7
20260507041114 50 227 17.0 30.0 0.00 0.00 0.00 100 893.4
20260507041007 50 228 18.0 30.0 0.00 0.00 0.00 100 892.5
20260507040913 50 228 18.0 28.0 0.00 0.00 0.00 100 892.5
20260507040806 50 227 18.0 28.0 0.00 0.00 0.00 100 896.9
20260507040712 50 219 17.0 28.0 0.00 0.00 0.00 100 895.1
20260507040605 50 218 17.0 26.0 0.00 0.00 0.00 100 895.1
20260507040506 50 213 17.0 26.0 0.00 0.00 0.00 100 892.0
20260507040405 50 221 17.0 25.0 0.00 0.00 0.00 100 895.9
20260507040311 50 221 17.0 25.0 0.00 0.00 0.00 100 895.9
20260507040204 50 223 19.0 28.0 0.00 0.00 0.00 100 893.8
20260507040110 50 221 19.0 30.0 0.00 0.00 0.00 100 892.1
20260507040003 50 221 19.0 30.0 0.00 0.00 0.00 100 892.1
20260507035909 50 222 19.0 30.0 0.00 0.00 0.00 100 892.1
20260507035803 50 218 20.0 35.0 0.00 0.00 0.00 100 892.1
20260507035709 50 223 20.0 35.0 0.00 0.00 0.00 100 897.4
20260507035601 50 223 20.0 35.0 0.00 0.00 0.00 100 892.3
20260507035502 50 223 20.0 32.0 0.00 0.00 0.00 100 891.5
20260507035401 50 222 19.0 32.0 0.00 0.00 0.00 100 895.9
20260507035307 50 221 17.0 33.0 0.00 0.00 0.00 100 893.3
20260507035200 50 221 17.0 33.0 0.00 0.00 0.00 100 892.5
20260507035106 50 218 17.0 33.0 0.00 0.00 0.00 100 898.6
20260507034959 50 219 19.0 33.0 0.00 0.00 0.00 100 893.4
20260507034905 50 219 20.0 33.0 0.00 0.00 0.00 100 891.1
20260507034758 50 216 20.0 33.0 0.00 0.00 0.00 100 897.3
20260507034705 50 218 20.0 33.0 0.00 0.00 0.00 100 897.3
20260507034558 50 218 21.0 37.0 0.00 0.00 0.00 100 893.9
20260507034458 50 215 22.0 38.0 0.00 0.00 0.00 100 891.0
20260507034357 50 214 23.0 38.0 0.00 0.00 0.00 100 894.2
20260507034303 50 218 23.0 38.0 0.00 0.00 0.00 100 895.0
20260507034156 50 216 24.0 38.0 0.00 0.00 0.00 100 890.1
20260507034102 50 219 24.0 35.0 0.00 0.00 0.00 100 894.0
20260507033954 50 221 24.0 37.0 0.00 0.00 0.00 100 897.3
20260507033900 50 218 23.0 37.0 0.00 0.00 0.00 100 890.1
20260507033753 50 218 23.0 37.0 0.00 0.00 0.00 100 896.3
20260507033659 50 216 23.0 44.0 0.00 0.00 0.00 100 893.8
20260507033552 50 215 23.0 44.0 0.00 0.00 0.00 100 891.1
20260507033459 50 217 24.0 44.0 0.00 0.00 0.00 100 891.1
20260507033453 50 217 24.0 44.0 0.00 0.00 0.00 100 897.3
20260507033351 50 217 24.0 44.0 0.00 0.00 0.00 100 897.3
20260507033257 50 216 23.0 42.0 0.00 0.00 0.00 100 894.6
20260507033150 50 213 23.0 42.0 0.00 0.00 0.00 100 893.2
20260507033115 50 212 23.0 40.0 0.00 0.00 0.00 100 892.1
20260507032949 50 209 23.0 40.0 0.00 0.00 0.00 100 891.2
20260507032855 50 209 23.0 40.0 0.00 0.00 0.00 100 891.2
20260507032749 50 206 23.0 41.0 0.00 0.00 0.00 100 892.1
20260507032655 50 207 23.0 41.0 0.00 0.00 0.00 100 891.5
20260507032548 50 208 24.0 41.0 0.00 0.00 0.00 100 891.5
20260507032448 50 208 26.0 42.0 0.00 0.00 0.00 100 894.3
20260507032347 50 209 26.0 42.0 0.00 0.00 0.00 100 889.8
20260507032252 50 207 26.0 42.0 0.00 0.00 0.00 100 889.8
20260507032146 50 207 24.0 42.0 0.00 0.00 0.00 100 897.7
20260507032052 50 207 23.0 39.0 0.00 0.00 0.00 100 889.6
20260507031945 50 206 22.0 42.0 0.00 0.00 0.00 100 889.6
20260507031851 50 210 22.0 42.0 0.00 0.00 0.00 100 897.4
20260507031743 50 210 23.0 42.0 0.00 0.00 0.00 100 893.1
20260507031649 50 210 23.0 42.0 0.00 0.00 0.00 100 891.6
20260507031542 50 211 24.0 41.0 0.00 0.00 0.00 100 891.9
20260507031442 50 213 25.0 41.0 0.00 0.00 0.00 100 891.9
20260507031340 50 215 26.0 41.0 0.00 0.00 0.00 100 894.1
20260507031245 50 218 25.0 41.0 0.00 0.00 0.00 100 892.2
20260507031140 50 216 25.0 41.0 0.00 0.00 0.00 100 894.2
20260507031046 50 216 22.0 40.0 0.00 0.00 0.00 100 894.2
20260507030939 50 216 22.0 40.0 0.00 0.00 0.00 100 890.3
20260507030844 50 221 22.0 35.0 0.00 0.00 0.00 100 894.6
20260507030738 50 217 23.0 38.0 0.00 0.00 0.00 100 895.5
20260507030643 50 217 22.0 38.0 0.00 0.00 0.00 100 891.2
20260507030537 50 213 23.0 38.0 0.00 0.00 0.00 100 896.5
20260507030437 50 211 22.0 38.0 0.00 0.00 0.00 100 889.3
20260507030336 50 209 22.0 35.0 0.00 0.00 0.00 100 893.5
20260507030240 50 208 23.0 39.0 0.00 0.00 0.00 100 897.8
20260507030134 50 211 23.0 39.0 0.00 0.00 0.00 100 889.8
20260507030040 50 212 24.0 41.0 0.00 0.00 0.00 100 893.2
20260507025933 51 209 24.0 41.0 0.00 0.00 0.00 100 895.0
20260507025840 51 213 24.0 42.0 0.00 0.00 0.00 100 895.0
20260507025732 51 213 25.0 42.0 0.00 0.00 0.00 100 889.7
20260507025637 51 210 26.0 45.0 0.00 0.00 0.00 100 892.2
20260507025530 51 211 25.0 45.0 0.00 0.00 0.00 100 895.3
20260507025431 50 211 24.0 45.0 0.00 0.00 0.00 100 890.5
20260507025329 50 206 24.0 45.0 0.00 0.00 0.00 100 896.1
20260507025234 50 212 26.0 43.0 0.00 0.00 0.00 100 891.2
20260507025129 50 213 26.0 43.0 0.00 0.00 0.00 100 894.8
20260507025034 50 213 27.0 43.0 0.00 0.00 0.00 100 894.8
20260507024928 50 221 25.0 43.0 0.00 0.00 0.00 100 894.3
20260507024835 50 220 24.0 42.0 0.00 0.00 0.00 100 891.3
20260507024728 50 217 24.0 42.0 0.00 0.00 0.00 100 891.3
20260507024633 50 217 23.0 40.0 0.00 0.00 0.00 100 898.9
20260507024526 50 218 25.0 45.0 0.00 0.00 0.00 100 891.9
20260507024427 50 219 26.0 45.0 0.00 0.00 0.00 100 891.1
20260507024325 51 216 26.0 45.0 0.00 0.00 0.00 100 893.9
20260507024230 51 213 26.0 43.0 0.00 0.00 0.00 100 893.9
20260507024124 51 210 25.0 43.0 0.00 0.00 0.00 100 889.8
20260507024030 51 209 25.0 41.0 0.00 0.00 0.00 100 889.7
20260507023923 51 209 25.0 41.0 0.00 0.00 0.00 100 889.7
20260507023828 51 212 25.0 45.0 0.00 0.00 0.00 100 893.3
20260507023722 51 212 25.0 45.0 0.00 0.00 0.00 100 896.0
20260507023626 51 214 25.0 45.0 0.00 0.00 0.00 100 896.0
20260507023521 51 214 25.0 45.0 0.00 0.00 0.00 100 890.0
20260507023421 51 213 25.0 45.0 0.00 0.00 0.00 100 894.3
20260507023320 51 213 25.0 39.0 0.00 0.00 0.00 100 894.2
20260507023224 51 212 24.0 40.0 0.00 0.00 0.00 100 890.2
20260507023119 51 212 24.0 40.0 0.00 0.00 0.00 100 893.6
20260507023024 51 213 25.0 40.0 0.00 0.00 0.00 100 893.0
20260507022918 51 213 25.0 41.0 0.00 0.00 0.00 100 889.7
20260507022824 51 216 25.0 41.0 0.00 0.00 0.00 100 893.7
20260507022717 51 219 25.0 42.0 0.00 0.00 0.00 100 893.0
20260507022622 51 219 26.0 46.0 0.00 0.00 0.00 100 890.2
20260507022516 51 217 27.0 46.0 0.00 0.00 0.00 100 895.0
20260507022420 51 216 27.0 46.0 0.00 0.00 0.00 100 895.0
20260507022416 51 216 27.0 46.0 0.00 0.00 0.00 100 893.7
20260507022314 51 216 27.0 46.0 0.00 0.00 0.00 100 893.7
20260507022218 51 216 27.0 46.0 0.00 0.00 0.00 100 893.2
20260507022113 51 216 25.0 45.0 0.00 0.00 0.00 100 895.6
20260507022017 51 215 23.0 45.0 0.00 0.00 0.00 100 889.2
20260507021912 51 215 24.0 45.0 0.00 0.00 0.00 100 896.0
20260507021817 51 215 25.0 44.0 0.00 0.00 0.00 100 890.7
20260507021711 51 216 25.0 44.0 0.00 0.00 0.00 100 890.7
20260507021616 51 216 26.0 44.0 0.00 0.00 0.00 100 893.1
20260507021510 51 216 26.0 42.0 0.00 0.00 0.00 100 894.1
20260507021410 51 215 26.0 42.0 0.00 0.00 0.00 100 889.3
20260507021309 51 218 27.0 44.0 0.00 0.00 0.00 100 892.5
20260507021214 51 217 27.0 44.0 0.00 0.00 0.00 100 892.5
20260507021109 51 213 26.0 44.0 0.00 0.00 0.00 100 895.9
20260507021013 51 213 26.0 44.0 0.00 0.00 0.00 100 890.2
20260507020908 51 214 27.0 43.0 0.00 0.00 0.00 100 895.4
20260507020813 51 214 28.0 46.0 0.00 0.00 0.00 100 893.8
20260507020707 51 215 29.0 46.0 0.00 0.00 0.00 100 894.9
20260507020611 50 219 29.0 46.0 0.00 0.00 0.00 100 894.9
20260507020507 50 214 29.0 42.0 0.00 0.00 0.00 100 894.5
20260507020407 51 214 28.0 42.0 0.00 0.00 0.00 100 895.1
20260507020306 51 213 28.0 43.0 0.00 0.00 0.00 100 895.6
20260507020210 51 213 28.0 43.0 0.00 0.00 0.00 100 895.6
20260507020105 51 213 28.0 43.0 0.00 0.00 0.00 100 889.4
20260507020009 51 214 26.0 41.0 0.00 0.00 0.00 100 889.4
20260507015904 51 218 26.0 41.0 0.00 0.00 0.00 100 893.3
20260507015807 51 216 23.0 41.0 0.00 0.00 0.00 100 896.5
20260507015702 51 223 26.0 44.0 0.00 0.00 0.00 100 889.6
20260507015606 51 225 26.0 44.0 0.00 0.00 0.00 100 891.5
20260507015501 51 226 25.0 44.0 0.00 0.00 0.00 100 899.2
20260507015402 51 228 26.0 44.0 0.00 0.00 0.00 100 890.4
20260507015301 51 222 23.0 38.0 0.00 0.00 0.00 100 892.0
20260507015205 51 222 23.0 37.0 0.00 0.00 0.00 100 897.8
20260507015100 51 217 24.0 42.0 0.00 0.00 0.00 100 889.8
20260507015005 51 215 26.0 42.0 0.00 0.00 0.00 100 894.2
20260507014859 51 216 26.0 42.0 0.00 0.00 0.00 100 895.9
20260507014803 51 216 26.0 42.0 0.00 0.00 0.00 100 895.9
20260507014658 51 219 25.0 41.0 0.00 0.00 0.00 100 890.5
20260507014602 51 221 26.0 45.0 0.00 0.00 0.00 100 890.5
20260507014457 51 220 26.0 45.0 0.00 0.00 0.00 100 897.0
20260507014358 51 220 26.0 45.0 0.00 0.00 0.00 100 891.5
20260507014256 51 222 26.0 45.0 0.00 0.00 0.00 100 893.8
20260507014200 51 222 24.0 44.0 0.00 0.00 0.00 100 893.8
20260507014055 51 222 24.0 44.0 0.00 0.00 0.00 100 891.1
20260507013959 51 216 24.0 44.0 0.00 0.00 0.00 100 891.0
20260507013854 51 216 25.0 39.0 0.00 0.00 0.00 100 896.3
20260507013748 51 216 25.0 39.0 0.00 0.00 0.00 100 896.3
20260507013644 51 216 26.0 46.0 0.00 0.00 0.00 100 890.3
20260507013548 51 218 24.0 46.0 0.00 0.00 0.00 100 894.9
20260507013442 51 215 24.0 46.0 0.00 0.00 0.00 100 894.9
20260507013342 51 220 24.0 41.0 0.00 0.00 0.00 100 889.8
20260507013237 51 220 24.0 41.0 0.00 0.00 0.00 100 894.5
20260507013144 51 220 24.0 41.0 0.00 0.00 0.00 100 895.0
20260507013036 51 224 24.0 41.0 0.00 0.00 0.00 100 891.6
20260507012943 51 222 22.0 34.0 0.00 0.00 0.00 100 891.6
20260507012835 51 219 22.0 34.0 0.00 0.00 0.00 100 898.3
20260507012742 51 225 23.0 36.0 0.00 0.00 0.00 100 892.7
20260507012635 51 225 24.0 37.0 0.00 0.00 0.00 100 893.3
20260507012543 51 228 24.0 37.0 0.00 0.00 0.00 100 893.0
20260507012434 51 229 24.0 37.0 0.00 0.00 0.00 100 891.6
20260507012334 51 223 24.0 36.0 0.00 0.00 0.00 100 895.3
20260507012233 51 223 22.0 36.0 0.00 0.00 0.00 100 895.3
20260507012141 51 219 22.0 35.0 0.00 0.00 0.00 100 895.3
20260507012032 51 223 22.0 35.0 0.00 0.00 0.00 100 890.3
20260507011939 51 230 22.0 35.0 0.00 0.00 0.00 100 893.6
20260507011831 51 232 22.0 36.0 0.00 0.00 0.00 100 897.3
20260507011738 51 232 22.0 36.0 0.00 0.00 0.00 100 890.5
20260507011630 51 230 21.0 36.0 0.00 0.00 0.00 100 892.6
20260507011538 51 224 20.0 36.0 0.00 0.00 0.00 100 898.5
20260507011430 51 224 19.0 36.0 0.00 0.00 0.00 100 890.3
20260507011330 51 230 19.0 30.0 0.00 0.00 0.00 100 891.1
20260507011229 51 231 20.0 30.0 0.00 0.00 0.00 100 895.2
20260507011136 51 228 19.0 33.0 0.00 0.00 0.00 100 895.2
20260507011028 51 225 17.0 33.0 0.00 0.00 0.00 100 890.5
20260507010936 51 227 17.0 33.0 0.00 0.00 0.00 100 890.5
20260507010827 51 228 18.0 26.0 0.00 0.00 0.00 100 893.4
20260507010734 51 237 18.0 26.0 0.00 0.00 0.00 100 894.0
20260507010626 52 237 19.0 27.0 0.00 0.00 0.00 100 890.9
20260507010533 52 237 19.0 31.0 0.00 0.00 0.00 100 890.9
20260507010425 51 237 19.0 31.0 0.00 0.00 0.00 100 896.8
20260507010326 51 234 20.0 32.0 0.00 0.00 0.00 100 890.3
20260507010225 51 230 20.0 32.0 0.00 0.00 0.00 100 890.3
20260507010132 51 230 22.0 32.0 0.00 0.00 0.00 100 891.4
20260507010023 51 226 20.0 32.0 0.00 0.00 0.00 100 899.2
20260507005930 51 222 20.0 32.0 0.00 0.00 0.00 100 899.2
20260507005822 52 220 20.0 36.0 0.00 0.00 0.00 100 891.6
20260507005729 52 226 19.0 36.0 0.00 0.00 0.00 100 890.7
20260507005621 52 228 19.0 36.0 0.00 0.00 0.00 100 895.7
20260507005527 51 229 19.0 36.0 0.00 0.00 0.00 100 895.4
20260507005420 51 216 18.0 36.0 0.00 0.00 0.00 100 890.3
20260507005320 52 216 16.0 28.0 0.00 0.00 0.00 100 892.5
20260507005219 52 212 16.0 28.0 0.00 0.00 0.00 100 899.3
20260507005125 52 212 16.0 28.0 0.00 0.00 0.00 100 890.3
20260507005018 52 218 16.0 27.0 0.00 0.00 0.00 100 891.3
20260507004925 52 222 17.0 27.0 0.00 0.00 0.00 100 894.5
20260507004817 52 231 18.0 28.0 0.00 0.00 0.00 100 895.5
20260507004724 52 236 19.0 33.0 0.00 0.00 0.00 100 895.5
20260507004616 52 236 19.0 33.0 0.00 0.00 0.00 100 891.1
20260507004522 52 235 19.0 33.0 0.00 0.00 0.00 100 891.1
20260507004415 52 231 19.0 28.0 0.00 0.00 0.00 100 894.3
20260507004315 52 222 19.0 29.0 0.00 0.00 0.00 100 893.8
20260507004213 52 212 19.0 36.0 0.00 0.00 0.00 100 891.2
20260507004120 52 212 20.0 36.0 0.00 0.00 0.00 100 894.0
20260507004012 52 211 20.0 36.0 0.00 0.00 0.00 100 893.5
20260507003919 52 215 19.0 36.0 0.00 0.00 0.00 100 890.2
20260507003810 52 215 17.0 36.0 0.00 0.00 0.00 100 892.2
20260507003717 52 219 15.0 24.0 0.00 0.00 0.00 100 898.8
20260507003609 52 223 15.0 23.0 0.00 0.00 0.00 100 890.7
20260507003516 52 218 15.0 23.0 0.00 0.00 0.00 100 890.7
20260507003409 52 223 15.0 23.0 0.00 0.00 0.00 100 892.0
20260507003309 52 223 14.0 23.0 0.00 0.00 0.00 100 894.7
20260507003207 52 223 15.0 23.0 0.00 0.00 0.00 100 894.0
20260507003114 52 234 16.0 25.0 0.00 0.00 0.00 100 890.9
20260507003007 52 241 18.0 28.0 0.00 0.00 0.00 100 892.0
20260507002914 52 243 18.0 28.0 0.00 0.00 0.00 100 896.9
20260507002806 52 244 17.0 28.0 0.00 0.00 0.00 100 896.9
20260507002713 52 244 18.0 32.0 0.00 0.00 0.00 100 894.5
20260507002605 52 242 20.0 32.0 0.00 0.00 0.00 100 891.4
20260507002512 52 234 21.0 44.0 0.00 0.00 0.00 100 896.1
20260507002405 53 227 21.0 44.0 0.00 0.00 0.00 100 893.6